Meteo Giornale » Osservazioni meteo Russia » Petrozavodsk
ore: 03:00 - Osservazioni Meteo Petrozavodsk
Lat. 61° 53' N Lon. 34° 9' E Alt. 46 metri s.l.m.
16 °C
Sereno
Temp. 24 Ore
14 °C
20 °C
Nord
7.2 Km/h
Dew point 16 °C
Umidità 100 %
Visibilità 10 Km
Il sole sorge alle ore 05:33
Il sole tramonta alle ore 19:53
| Data e Ora | Cielo e Fenomeni | T °C | DP °C | Um. % | Pres. hPa | Vis. km | Vento km/h | |
|---|---|---|---|---|---|---|---|---|
| Oggi h: 03:00 | Sereno | 16 | 16 | 100 | 1008 | 10 | N 7.2 | |
| Oggi h: 02:00 | Pioggia | 16 | 16 | 100 | 1008 | 10 | N 7.2 | |
| Oggi h: 01:00 | Pioggia | 16 | 16 | 100 | 1008 | 5 | N 3.6 | |
| Oggi h: 00:00 | Sereno | 16 | 16 | 100 | 1008 | 8 | N 0 | |
| Ieri h: 23:00 | Sereno | 16 | 16 | 100 | 1008 | 9 | N 3.6 | |
| Ieri h: 22:00 | Molto Nuvoloso | 16 | 16 | 100 | 1009 | 9 | N 0 | |
| Ieri h: 21:30 | Molto Nuvoloso | 16 | 16 | 100 | 1009 | 9 | N 0 | |
| Ieri h: 21:00 | Molto Nuvoloso | 16 | 16 | 100 | 1009 | 9 | N 3.6 | |
| Ieri h: 20:30 | Pioggia | 17 | 16 | 93 | 1009 | 9 | N 3.6 | |
| Ieri h: 20:00 | Pioggia | 17 | 16 | 93 | 1009 | 8 | N 0 | |
| Ieri h: 19:30 | Pioggia | 17 | 16 | 93 | 1010 | 10 | N 3.6 | |
| Ieri h: 19:00 | Poco Nuvoloso | 18 | 16 | 88 | 1010 | 10 | N 3.6 | |
| Ieri h: 18:30 | Pioggia | 18 | 16 | 88 | 1010 | 10 | S 10.8 | |
| Ieri h: 18:00 | Molto Nuvoloso | 19 | 16 | 82 | 1010 | 10 | N 7.2 | |
| Ieri h: 17:30 | Molto Nuvoloso | 19 | 16 | 82 | 1010 | 10 | N 0 | |
| Ieri h: 17:00 | Molto Nuvoloso | 19 | 16 | 82 | 1010 | 10 | N 7.2 | |
| Ieri h: 16:30 | Molto Nuvoloso | 19 | 16 | 82 | 1010 | 10 | N 3.6 | |
| Ieri h: 16:00 | Molto Nuvoloso | 18 | 16 | 88 | 1011 | 10 | N 3.6 | |
| Ieri h: 15:30 | Pioggia | 18 | 17 | 93 | 1011 | 9 | N 7.2 | |
| Ieri h: 15:00 | Pioggia | 18 | 16 | 88 | 1011 | 10 | S/SO 10.8 | |
| Ieri h: 14:30 | Pioggia | 19 | 16 | 82 | 1011 | 10 | SO 14.4 | |
| Ieri h: 14:00 | Molto Nuvoloso | 19 | 15 | 77 | 1011 | 10 | SO 14.4 | |
| Ieri h: 13:30 | Molto Nuvoloso | 19 | 15 | 77 | 1011 | 10 | SO 14.4 | |
| Ieri h: 13:00 | Molto Nuvoloso | 19 | 14 | 72 | 1011 | 10 | O 10.8 | |
| Ieri h: 12:30 | Nuvoloso | 20 | 15 | 72 | 1010 | 10 | SO 18 | |
| Ieri h: 12:00 | Molto Nuvoloso | 19 | 14 | 72 | 1010 | 10 | SO 21.6 | |
| Ieri h: 11:30 | Molto Nuvoloso | 19 | 15 | 77 | 1010 | 10 | SO 18 | |
| Ieri h: 11:00 | Molto Nuvoloso | 18 | 15 | 82 | 1010 | 10 | SO 10.8 | |
| Ieri h: 10:30 | Molto Nuvoloso | 17 | 15 | 88 | 1010 | 10 | O/SO 18 | |
| Ieri h: 10:16 | Molto Nuvoloso | 17 | 15 | 88 | 1010 | 10 | O/SO 14.4 | |
| Ieri h: 10:00 | Molto Nuvoloso | 17 | 15 | 88 | 1010 | 10 | SO 14.4 | |
| Ieri h: 09:30 | Coperto | 17 | 16 | 93 | 1010 | 10 | O/SO 10.8 | |
| Ieri h: 09:17 | Coperto | 16 | 15 | 93 | 1010 | 10 | O/SO 10.8 | |
| Ieri h: 09:02 | Coperto | 16 | 15 | 93 | 1010 | 10 | O/SO 10.8 | |
| Ieri h: 09:00 | Coperto | 16 | 15 | 93 | 1010 | 10 | O/SO 10.8 | |
| Ieri h: 08:30 | Coperto | 16 | 15 | 93 | 1010 | 10 | O/SO 10.8 | |
| Ieri h: 08:00 | Coperto | 16 | 15 | 93 | 1010 | 10 | SO 10.8 | |
| Ieri h: 07:00 | Sereno | 15 | 15 | 100 | 1010 | 10 | N 7.2 | |
| Ieri h: 06:00 | Pioviggine | 14 | 14 | 100 | 1010 | 5 | N 3.6 | |
| Ieri h: 05:00 | Sereno | 15 | 14 | 93 | 1010 | 10 | N 7.2 | |
| Ieri h: 04:00 | Sereno | 14 | 14 | 100 | 1010 | 10 | N 7.2 | |



